Location: Dosolo
(44.9500°N, 10.6500°E)
Time: 01:34:55
(UTC+00:00)

Daily predictions for brighter satellites

Satellite Brightness Start Highest point End
(mag) Time Altitude Azimuth Time Altitude Azimuth Time Altitude Azimuth
CENTAUR R/B 4.4 02:28:54 24° E 02:28:54 24° E 02:32:36 10° NE
Cosmos 2344 3.9 02:53:31 57° ENE 02:53:31 57° ENE 02:59:51 10° NE
USA 238 DEB 4.2 03:12:40 49° SE 03:12:57 50° ESE 03:19:26 10° NE
USA 238 4.2 03:12:43 49° SE 03:13:03 49° ESE 03:19:32 10° NE
BREEZE-M DEB (TANK) 4.3 03:15:56 40° E 03:15:56 40° E 03:22:05 10° ESE
Cosmos 2034 Rocket 4.4 03:24:10 57° SE 03:24:10 57° SE 03:29:16 10° SSE
USA 215 3.8 03:19:01 10° E 03:25:11 47° NNE 03:25:43 46° N
Cosmos 2369 Rocket 3.8 03:32:29 10° SSE 03:37:20 32° ESE 03:42:14 10° NE
NOSS 3-3 (A) 4.4 03:44:27 59° NW 03:46:14 89° WSW 03:54:48 10° SE
NOSS 3-3 (C) 4.5 03:44:32 59° NW 03:46:21 89° SW 03:54:53 10° SE
COSMO-SKYMED 1 4.2 03:43:15 10° SE 03:47:05 31° ENE 03:48:36 25° NNE
Cosmos 1867 3.8 03:50:14 64° SSE 03:50:14 64° SSE 03:54:47 10° SSE
MOS 1-B Rocket 4.4 03:43:57 10° SSE 03:50:12 61° ENE 03:54:14 20° N
Tsikada Rocket 4.0 03:45:46 10° S 03:51:56 76° E 03:58:12 10° N
Cosmos 2208 Rocket 4.1 03:52:17 79° ESE 03:52:17 79° ESE 03:57:29 10° SSE
H-2A R/B 4.4 03:50:22 10° NNE 03:53:45 32° E 03:57:08 10° SSE
Gblst 52 Del rocket 4.3 03:54:35 75° NNW 03:54:38 75° NNW 04:01:18 10° ENE
Cosmos 1943 Rocket 2.1 04:06:38 70° NW 04:06:38 70° NW 04:12:11 10° NNE
CZ-2C R/B 3.2 04:02:47 10° SSE 04:08:10 58° ENE 04:13:25 10° N
SL-19 R/B 4.2 04:04:48 10° SSE 04:10:25 86° ENE 04:13:20 30° NNW
Cosmos 1241 Rocket 4.3 04:10:32 57° NW 04:11:47 75° WSW 04:17:57 10° SSE
SL-8 R/B 3.8 04:16:23 60° N 04:16:38 61° N 04:21:22 10° E
CENTAUR R/B 2.5 04:16:08 53° W 04:17:09 60° NW 04:24:13 10° NE
Cosmos 2297 3.7 04:21:06 54° WNW 04:21:28 55° WNW 04:27:06 10° NNE
Iridium 2 3.9 04:22:33 10° S 04:26:18 67° E 04:30:04 10° N
NOSS 3-2 (A) 3.7 04:27:49 41° NW 04:28:20 42° NW 04:34:33 10° NNE
Cosmos 2278 Rocket 4.2 04:33:50 12° NNW 04:33:50 12° NNW 04:34:44 10° N
SKYMED 2 3.4 04:30:40 10° SSE 04:35:00 84° W 04:37:12 29° NNW
NOSS 3-2 (C) 3.3 04:33:35 38° WSW 04:35:40 59° NW 04:42:06 10° NNE
Envisat 2.9 04:30:56 10° NNE 04:36:02 84° WNW 04:41:07 10° SSW
Meteor 2-6 Rocket 4.4 04:31:27 10° N 04:36:53 69° ENE 04:42:14 10° SSE
Cosmos 2098 Rocket 2.8 04:37:29 10° S 04:41:15 87° W 04:46:05 10° N
Meteor 2-3 Rocket 3.9 04:36:37 10° SW 04:42:01 45° WNW 04:47:31 10° N
Landsat 5 3.5 04:40:07 10° SSE 04:44:37 86° WSW 04:48:26 14° NNW
Cosmos 968 Rocket 3.6 04:42:38 24° SW 04:45:30 50° WNW 04:50:31 10° NNE
Meteor 2-13 Rocket 4.4 04:40:19 10° SSW 04:46:22 64° WNW 04:52:25 10° N
CZ-4B R/B 4.0 04:44:05 10° N 04:48:32 76° WNW 04:53:00 10° SSW
Genesis I 3.8 04:49:24 40° WSW 04:49:38 40° WSW 04:53:25 10° S
Cosmos 921 Rocket 3.2 04:50:35 37° WNW 04:51:49 49° WSW 04:56:06 10° S
Meteor 1-10 Rocket 4.5 04:47:19 10° N 04:52:53 69° ENE 04:58:23 10° SSE
Okean 3 Rocket 3.6 04:48:21 10° S 04:52:53 90° E 04:57:29 10° N
ATLAS 5 CENTAUR R/B 4.2 04:52:11 10° SSE 04:54:53 19° ESE 04:57:46 10° ENE
H-2A R/B 3.4 04:51:25 10° SE 04:55:20 38° ENE 04:59:23 10° N
DNEPR-1 R/B 3.9 04:53:14 24° NW 04:56:14 87° NE 05:01:59 10° SE
Cosmos 1833 4.3 04:51:16 13° NNW 04:56:22 78° ENE 05:02:07 10° SSE
Cosmos 1812 2.9 04:56:57 35° NW 04:58:06 47° W 05:01:47 10° SSW
CBERS 1 LM4 rocket 4.3 04:54:25 10° N 04:59:13 63° WNW 05:04:09 10° SSW
ADEOS 3.6 04:54:19 10° NNE 04:59:34 82° ESE 05:04:47 10° SSW
Cosmos 1354 Rocket 4.3 04:57:51 10° S 05:03:05 72° ESE 05:08:23 10° NNE
USA 238 DEB 4.0 05:00:11 22° W 05:04:01 42° NW 05:10:33 10° NNE
USA 238 4.0 05:00:14 22° W 05:04:07 42° NW 05:10:39 10° NNE
Cosmos 2142 Rocket 4.5 04:58:35 10° NNW 05:04:51 65° W 05:11:09 10° S
Cosmos 1151 Rocket 3.2 05:01:35 15° NNW 05:04:58 49° W 05:09:11 10° SSW
Cosmos 1766 Rocket 3.5 05:01:51 10° SSW 05:06:07 58° WNW 05:10:24 10° N
Cosmos 2263 4.1 05:01:35 10° SSW 05:07:15 71° WNW 05:13:01 10° NNE
Cosmos 2344 4.2 05:03:34 22° WNW 05:07:20 34° NNW 05:14:41 10° NE
CZ-2C R/B 3.4 05:02:44 10° NNE 05:07:34 65° ESE 05:12:35 10° S
USA 215 3.3 05:01:30 10° SE 05:08:00 71° SW 05:13:03 18° NW
Meteor PRIRODA 3.7 05:09:15 10° NNE 05:12:52 75° ESE 05:16:29 10° S
Meteor 1-31 Rocket 3.2 05:10:46 10° N 05:14:22 37° WNW 05:17:59 10° SW
Cosmos 2279 Rocket 4.0 05:09:33 10° NNW 05:15:35 56° W 05:21:36 10° SSW
Cosmos 2297 Rocket 4.4 05:12:33 10° N 05:16:28 19° NE 05:20:21 10° E
IRAS Rocket 4.2 05:11:12 10° SSE 05:16:43 81° WSW 05:22:15 10° NNW
Cosmos 1328 Rocket 3.7 05:13:23 10° NNW 05:17:39 51° W 05:21:52 10° S
BREEZE-M DEB (TANK) 3.8 05:05:05 10° SW 05:18:09 67° SSE 05:21:44 10° ENE
Cosmos 2369 Rocket 2.5 05:15:57 10° SW 05:21:13 42° WNW 05:26:32 10° NNE
FALCON 9 DEB 4.2 05:21:07 22° NW 05:22:16 28° NNW 05:25:15 10° NE
Cosmos 1862 3.8 05:18:49 10° SW 05:22:29 36° WNW 05:26:10 10° N
COSMO-SKYMED 1 3.6 05:19:36 10° SSW 05:23:15 26° W 05:25:48 16° NW
SMAP 4.0 05:18:45 10° NNE 05:23:19 51° E 05:27:49 10° S
Nadezhda 4 Rocket 4.0 05:19:17 10° S 05:25:27 86° E 05:31:43 10° N
H-2A R/B 4.0 05:24:58 10° NNW 05:27:39 19° WNW 05:30:20 10° WSW
H-2A R/B 3.8 05:30:05 10° NNE 05:34:32 33° E 05:38:58 10° SSE
Meteor 2-15 Rocket 4.4 05:29:17 10° NNW 05:35:23 76° W 05:41:26 10° S
Cosmos 2228 Rocket 4.1 05:31:28 10° N 05:35:49 48° ENE 05:40:12 10° SSE
CZ-4B R/B 2.5 05:33:41 10° N 05:37:13 60° WNW 05:40:44 10° SSW
CZ-4B R/B 2.2 05:35:51 10° SSE 05:39:06 52° ENE 05:42:20 10° N
Cosmos 1408 Rocket 3.6 05:37:20 10° SSW 05:41:31 51° WNW 05:45:44 10° N
CZ-4C R/B 4.3 05:42:01 10° SW 05:44:16 18° W 05:46:01 12° NW
DMSP B5D2-2 4.3 05:39:28 10° S 05:44:31 50° W 05:49:35 10° NNW
Cosmos 1656 Rocket 4.1 05:39:56 10° WSW 05:44:55 37° NW 05:49:58 10° NNE
Cosmos 1503 Rocket 4.3 05:40:09 10° SW 05:45:10 44° WNW 05:50:16 10° N
USA 32 4.1 05:42:09 10° N 05:47:26 84° E 05:52:40 10° S
CZ-2C R/B 3.9 05:44:46 10° SW 05:48:48 21° W 05:52:49 10° NW
Cosmos 1743 Rocket 3.5 05:44:25 10° S 05:48:48 82° W 05:53:12 10° N
FAST Rocket 3.9 05:48:31 10° SSW 05:51:06 63° W 05:54:01 10° N
Cosmos 1943 Rocket 3.8 05:48:15 10° WNW 05:51:19 15° NW 05:54:29 10° N
AQUARIUS 4.3 05:46:49 10° NNE 05:51:21 84° ESE 05:55:50 10° SSW
Cosmos 2227 Rocket 4.1 05:47:30 10° N 05:51:59 23° NE 05:56:25 10° E
PSLV R/B 4.1 05:52:27 10° SSE 05:56:29 75° ENE 06:00:35 10° N
PSLV R/B 4.2 05:52:35 10° NNE 05:56:31 72° ESE 06:00:30 10° S
Cosmos 1777 Rocket 4.0 05:51:35 10° SSW 05:56:47 73° WNW 06:02:02 10° NNE
Cosmos 1515 Rocket 4.2 05:53:55 10° NNW 05:57:54 35° W 06:01:50 10° SSW
SL-8 R/B 4.0 05:54:30 10° WNW 05:59:14 61° SSW 06:03:56 10° SE
CORIOLIS 4.3 05:55:13 10° NNE 06:00:42 90° ESE 06:06:09 10° SSW
Meteor 1-27 Rocket 3.9 05:55:35 10° NNW 06:01:02 53° W 06:06:35 10° S
Cosmos 1602 3.7 05:57:26 10° S 06:01:15 88° E 06:05:05 10° N
NOAA 6 4.0 05:57:40 10° N 06:02:47 77° WNW 06:07:53 10° SSW
COSMOS 2487 2.5 06:01:56 10° NNW 06:05:18 75° ENE 06:08:38 10° SSE
Cosmos 773 Rocket 4.4 06:00:43 10° NNW 06:05:40 44° WSW 06:10:32 10° S
SJ 16-02 1.4 06:02:01 10° SSW 06:06:21 59° WNW 06:10:41 10° NNE
